Weather History for Point Pleasant, WV

Change the Weather History Date:

Wednesday, March 28, 2012

  Actual Average (KHTS) Record (KHTS)
Temperature  
Mean Temperature 58 °F 50 °F  
Max Temperature 75 °F 61 °F 86 °F (1989)
Min Temperature 41 °F 39 °F 10 °F (1982)
Degree Days  
Heating Degree Days 7 15  
Month to date heating degree days 553  
Since 1 July heating degree days 4054  
Cooling Degree Days 0 0  
Month to date cooling degree days 0  
Year to date cooling degree days 0  
Growing Degree Days 8 (Base 50)    
Moisture  
Dew Point 41 °F    
Average Humidity 62    
Maximum Humidity 93    
Minimum Humidity 40    
Precipitation  
Precipitation 0.00 in 0.12 in 1.09 in (1956)
Month to date precipitation 3.53  
Year to date precipitation 9.57  
Snow  
Snow 0.00 in - - ()
Month to date snowfall  
Since 1 September snowfall  
Snow Depth -    
Sea Level Pressure  
Sea Level Pressure 29.93 in    
Wind  
Wind Speed 4 mph (WSW)    
Max Wind Speed 17 mph    
Max Gust Speed 31 mph    
Visibility 10 miles    
Events      
T = Trace of Precipitation, MM = Missing Value Source: NWS Daily Summary

Daily Weather History Graph

Daily Weather History Graph

Search for Another Location

Airport:

Trip Planner

Search our weather history database for the weather conditions in past years. The results will help you decide how hot, cold, wet, or windy it might be!

Date:

Astronomy

Mar. 28, 2012 Rise Set
Actual Time 7:18 AM EDT 7:48 PM EDT
Civil Twilight 6:51 AM EDT 8:15 PM EDT
Nautical Twilight 6:20 AM EDT 8:46 PM EDT
Astronomical Twilight 5:48 AM EDT 9:19 PM EDT
Moon 10:37 AM EDT (3/28) 12:46 AM EDT (3/28)
Length of Visible Light 13h 23m
Length of Day
12h 30m
Waxing Crescent, 30% of the Moon is Illuminated
Mar 28
Waxing Crescent
Mar 30
First Quarter
Apr 6
Full
Apr 13
Last Quarter
Apr 21
New

Hourly Weather History & Observations

Time (EDT) Temp. Windchill Dew Point Humidity Pressure Visibility Wind Dir Wind Speed Gust Speed Precip Events Conditions
12:15 AM 42.8 °F - 30.2 °F 61% 30.05 in 10.0 mi Calm Calm - N/A   Clear
12:35 AM 42.8 °F - 32.0 °F 66% 30.04 in 10.0 mi Calm Calm - N/A   Clear
12:55 AM 42.8 °F - 32.0 °F 66% 30.04 in 10.0 mi Calm Calm - N/A   Clear
1:15 AM 41.0 °F - 32.0 °F 70% 30.02 in 10.0 mi Calm Calm - N/A   Clear
1:35 AM 41.0 °F - 32.0 °F 70% 30.02 in 10.0 mi Calm Calm - N/A   Clear
1:55 AM 41.0 °F - 32.0 °F 70% 30.02 in 10.0 mi Calm Calm - N/A   Clear
2:15 AM 41.0 °F - 32.0 °F 70% 30.01 in 10.0 mi Calm Calm - N/A   Clear
2:35 AM 41.0 °F - 32.0 °F 70% 30.01 in 10.0 mi Calm Calm - N/A   Clear
2:55 AM 41.0 °F - 32.0 °F 70% 30.01 in 10.0 mi Calm Calm - N/A   Clear
3:15 AM 42.8 °F - 35.6 °F 76% 30.01 in 10.0 mi Calm Calm - N/A   Clear
3:35 AM 42.8 °F - 35.6 °F 76% 30.00 in 10.0 mi Calm Calm - N/A   Clear
3:55 AM 42.8 °F - 35.6 °F 76% 30.00 in 10.0 mi Calm Calm - N/A   Clear
4:15 AM 41.0 °F - 37.4 °F 87% 30.00 in 10.0 mi Calm Calm - N/A   Clear
4:35 AM 41.0 °F - 37.4 °F 87% 29.99 in 10.0 mi Calm Calm - N/A   Clear
4:55 AM 41.0 °F - 37.4 °F 87% 29.99 in 10.0 mi Calm Calm - N/A   Clear
5:15 AM 41.0 °F - 39.2 °F 93% 29.99 in 10.0 mi Calm Calm - N/A   Clear
5:35 AM 41.0 °F - 39.2 °F 93% 29.98 in 10.0 mi Calm Calm - N/A   Clear
5:55 AM 42.8 °F - 37.4 °F 81% 29.98 in 10.0 mi Calm Calm - N/A   Clear
6:15 AM 46.4 °F 44.3 °F 37.4 °F 71% 29.98 in 10.0 mi SW 4.6 mph - N/A   Clear
6:35 AM 53.6 °F - 37.4 °F 54% 29.97 in 10.0 mi SW 5.8 mph - N/A   Clear
6:55 AM 53.6 °F - 39.2 °F 58% 29.97 in 10.0 mi SW 6.9 mph - N/A   Clear
7:15 AM 53.6 °F - 39.2 °F 58% 29.97 in 10.0 mi SW 6.9 mph - N/A   Clear
7:35 AM 55.4 °F - 41.0 °F 58% 29.97 in 10.0 mi SW 6.9 mph - N/A   Clear
7:55 AM 55.4 °F - 41.0 °F 58% 29.97 in 10.0 mi SW 5.8 mph - N/A   Clear
8:35 AM 59.0 °F - 42.8 °F 55% 29.97 in 10.0 mi SW 10.4 mph - N/A   Clear
8:55 AM 60.8 °F - 44.6 °F 55% 29.96 in 10.0 mi SW 6.9 mph - N/A   Clear
9:15 AM 60.8 °F - 44.6 °F 55% 29.95 in 10.0 mi SW 8.1 mph - N/A   Clear
9:35 AM 64.4 °F - 46.4 °F 52% 29.95 in 10.0 mi SW 8.1 mph 18.4 mph N/A   Clear
9:55 AM 66.2 °F - 48.2 °F 52% 29.94 in 10.0 mi SW 12.7 mph 20.7 mph N/A   Clear
10:15 AM 68.0 °F - 48.2 °F 49% 29.94 in 10.0 mi WSW 13.8 mph 21.9 mph N/A   Clear
10:35 AM 69.8 °F - 50.0 °F 49% 29.93 in 10.0 mi SW 17.3 mph 23.0 mph N/A   Clear
10:55 AM 71.6 °F - 50.0 °F 46% 29.92 in 10.0 mi SW 17.3 mph 27.6 mph N/A   Clear
11:15 AM 71.6 °F - 50.0 °F 46% 29.92 in 10.0 mi WSW 12.7 mph 24.2 mph N/A   Clear
11:35 AM 71.6 °F - 51.8 °F 50% 29.91 in 10.0 mi WSW 13.8 mph 23.0 mph N/A   Clear
11:55 AM 75.2 °F - 51.8 °F 44% 29.90 in 10.0 mi WSW 13.8 mph 23.0 mph N/A   Clear
12:15 PM 75.2 °F - 51.8 °F 44% 29.89 in 10.0 mi WSW 13.8 mph 21.9 mph N/A   Clear
12:35 PM 73.4 °F - 50.0 °F 44% 29.89 in 10.0 mi West 11.5 mph 21.9 mph N/A   Clear
12:55 PM 71.6 °F - 50.0 °F 46% 29.87 in 10.0 mi West 10.4 mph 25.3 mph N/A   Clear
1:15 PM 69.8 °F - 46.4 °F 43% 29.86 in 10.0 mi WSW 15.0 mph 25.3 mph N/A   Clear
1:35 PM 68.0 °F - 42.8 °F 40% 29.86 in 10.0 mi West 9.2 mph 16.1 mph N/A   Clear
1:55 PM - - - N/A% 29.85 in 10.0 mi WSW 12.7 mph 24.2 mph N/A   Clear
2:15 PM - - - N/A% 29.84 in 10.0 mi West 16.1 mph 26.5 mph N/A   Clear
2:35 PM - - - N/A% 29.83 in 10.0 mi WSW 9.2 mph 31.1 mph N/A   Clear
2:55 PM - - - N/A% 29.82 in 10.0 mi West 17.3 mph 24.2 mph N/A   Scattered Clouds
3:15 PM - - - N/A% 29.82 in 10.0 mi West 12.7 mph 24.2 mph N/A   Scattered Clouds
3:35 PM - - - N/A% 29.82 in 10.0 mi West 10.4 mph 24.2 mph N/A   Clear
4:15 PM - - - N/A% 29.81 in 10.0 mi West 17.3 mph 25.3 mph N/A   Clear
4:35 PM - - - N/A% 29.81 in 10.0 mi West 11.5 mph 21.9 mph N/A   Clear
4:55 PM - - - N/A% 29.81 in 10.0 mi West 11.5 mph 21.9 mph N/A   Clear
5:15 PM - - - N/A% 29.82 in 10.0 mi West 3.5 mph 19.6 mph N/A   Clear
5:35 PM - - - N/A% 29.82 in 10.0 mi West 6.9 mph - N/A   Clear
6:15 PM - - - N/A% 29.82 in 10.0 mi West 9.2 mph 16.1 mph N/A   Clear
6:35 PM - - - N/A% 29.83 in 10.0 mi West 4.6 mph 18.4 mph N/A   Clear
6:55 PM - - - N/A% 29.83 in 10.0 mi West 9.2 mph 19.6 mph N/A   Clear
7:15 PM - - - N/A% 29.84 in 10.0 mi West 6.9 mph 16.1 mph N/A   Clear
7:35 PM - - - N/A% 29.84 in 10.0 mi West 4.6 mph - N/A   Clear
7:55 PM - - - N/A% 29.84 in 10.0 mi West 3.5 mph - N/A   Clear
8:15 PM - - - N/A% 29.85 in 10.0 mi Calm Calm - N/A   Clear
8:35 PM - - - N/A% 29.86 in 10.0 mi WNW 3.5 mph - N/A   Clear
8:55 PM - - - N/A% 29.87 in 10.0 mi WNW 5.8 mph - N/A   Clear
9:15 PM - - - N/A% 29.89 in 10.0 mi West 4.6 mph - N/A   Clear
9:35 PM - - - N/A% 29.90 in 10.0 mi Calm Calm - N/A   Clear
9:55 PM - - - N/A% 29.91 in 10.0 mi Calm Calm - N/A   Clear
10:15 PM - - - N/A% 29.91 in 10.0 mi West 3.5 mph - N/A   Clear
10:35 PM - - - N/A% 29.91 in 10.0 mi WNW 5.8 mph - N/A   Clear
10:55 PM - - - N/A% 29.91 in 10.0 mi Calm Calm - N/A   Clear
11:15 PM - - - N/A% 29.91 in 10.0 mi WNW 4.6 mph - N/A   Clear
11:35 PM - - - N/A% 29.91 in 10.0 mi WNW 4.6 mph - N/A   Clear
11:55 PM - - - N/A% 29.92 in 10.0 mi WNW 3.5 mph - N/A   Clear